Time,TemperatureF,DewpointF,PressureIn,WindDirection,WindDirectionDegrees,WindSpeedMPH,WindSpeedGustMPH,Humidity,HourlyPrecipIn,Conditions,Clouds,dailyrainin,SoftwareType,DateUTC
2013-04-05 00:05:00,26.1,20.8,30.26,NNW,341,6.0,7.0,80,0.00,-SN,,0.00,WeatherDisplay:10.37,2013-04-05 05:05:00,
2013-04-05 00:10:00,26.0,20.7,30.27,NNW,338,5.0,6.0,80,0.00,-SN,,0.00,WeatherDisplay:10.37,2013-04-05 05:10:00,
2013-04-05 00:15:00,25.9,20.6,30.27,NNW,334,3.0,8.0,80,0.00,-SN,,0.00,WeatherDisplay:10.37,2013-04-05 05:15:00,
2013-04-05 00:20:00,25.9,20.6,30.27,NNW,336,3.0,7.0,80,0.00,-SN,,0.00,WeatherDisplay:10.37,2013-04-05 05:20:00,
2013-04-05 00:30:00,25.6,20.3,30.27,NNW,338,3.0,4.0,80,0.00,-SN,,0.00,WeatherDisplay:10.37,2013-04-05 05:30:00,
2013-04-05 01:10:00,25.1,19.8,30.28,NNW,346,6.0,7.0,80,0.00,-SN,,0.00,WeatherDisplay:10.37,2013-04-05 06:10:00,
2013-04-05 01:15:00,25.0,19.7,30.28,NNW,348,5.0,6.0,80,0.00,-SN,,0.00,WeatherDisplay:10.37,2013-04-05 06:15:00,
2013-04-05 01:25:00,24.8,19.8,30.28,NNW,343,5.0,6.0,81,0.00,-SN,,0.00,WeatherDisplay:10.37,2013-04-05 06:25:00,
2013-04-05 01:30:00,24.7,19.7,30.28,NNW,342,5.0,6.0,81,0.00,-SN,,0.00,WeatherDisplay:10.37,2013-04-05 06:30:00,
2013-04-05 01:40:00,24.5,19.5,30.28,NNW,343,5.0,7.0,81,0.00,-SN,,0.00,WeatherDisplay:10.37,2013-04-05 06:40:00,
2013-04-05 01:45:00,24.3,19.3,30.28,NNW,347,3.0,6.0,81,0.00,-SN,,0.00,WeatherDisplay:10.37,2013-04-05 06:45:00,
2013-04-05 01:50:00,24.1,19.4,30.28,North,351,3.0,5.0,82,0.00,-SN,,0.00,WeatherDisplay:10.37,2013-04-05 06:50:00,
2013-04-05 01:55:00,23.9,19.2,30.28,North,357,3.0,5.0,82,0.00,-SN,,0.00,WeatherDisplay:10.37,2013-04-05 06:55:00,
2013-04-05 02:00:00,23.4,18.7,30.28,North,1,1.0,3.0,82,0.00,-SN,,0.00,WeatherDisplay:10.37,2013-04-05 07:00:00,
2013-04-05 02:10:00,23.0,18.9,30.28,North,1,1.0,2.0,84,0.00,-SN,,0.00,WeatherDisplay:10.37,2013-04-05 07:10:00,
2013-04-05 02:15:00,23.0,18.9,30.28,North,352,1.0,2.0,84,0.00,-SN,,0.00,WeatherDisplay:10.37,2013-04-05 07:15:00,
2013-04-05 02:20:00,22.9,19.1,30.28,NNW,340,1.0,2.0,85,0.00,-SN,,0.00,WeatherDisplay:10.37,2013-04-05 07:20:00,
2013-04-05 02:30:00,22.6,18.8,30.28,NW,326,0.0,2.0,85,0.00,-SN,,0.00,WeatherDisplay:10.37,2013-04-05 07:30:00,
2013-04-05 02:40:00,22.8,19.0,30.29,NW,326,2.0,2.0,85,0.00,-SN,,0.00,WeatherDisplay:10.37,2013-04-05 07:40:00,
2013-04-05 02:45:00,22.8,19.0,30.28,NW,326,2.0,2.0,85,0.00,-SN,,0.00,WeatherDisplay:10.37,2013-04-05 07:45:00,
2013-04-05 02:50:00,22.7,18.9,30.29,NW,326,2.0,3.0,85,0.00,-SN,,0.00,WeatherDisplay:10.37,2013-04-05 07:50:00,
2013-04-05 03:00:00,22.2,18.7,30.29,NW,326,1.0,2.0,86,0.00,-SN,,0.00,WeatherDisplay:10.37,2013-04-05 08:00:00,
2013-04-05 03:10:00,21.6,18.1,30.29,NW,326,0.0,0.0,86,0.00,-SN,,0.00,WeatherDisplay:10.37,2013-04-05 08:10:00,
2013-04-05 03:15:00,21.3,18.0,30.29,NW,326,0.0,0.0,87,0.00,-SN,,0.00,WeatherDisplay:10.37,2013-04-05 08:15:00,
2013-04-05 03:20:00,21.2,17.9,30.29,NW,326,0.0,0.0,87,0.00,-SN,,0.00,WeatherDisplay:10.37,2013-04-05 08:20:00,
2013-04-05 03:30:00,20.9,17.6,30.29,NW,326,0.0,0.0,87,0.00,-SN,,0.00,WeatherDisplay:10.37,2013-04-05 08:30:00,
2013-04-05 03:40:00,21.2,17.9,30.30,NW,322,0.0,2.0,87,0.00,-SN,,0.00,WeatherDisplay:10.37,2013-04-05 08:40:00,
2013-04-05 03:45:00,21.4,17.9,30.30,NW,320,0.0,1.0,86,0.00,-SN,,0.00,WeatherDisplay:10.37,2013-04-05 08:45:00,
2013-04-05 03:50:00,21.5,18.0,30.30,NW,317,0.0,0.0,86,0.00,-SN,,0.00,WeatherDisplay:10.37,2013-04-05 08:50:00,
2013-04-05 04:00:00,21.9,18.4,30.30,NW,306,1.0,2.0,86,0.00,-SN,,0.00,WeatherDisplay:10.37,2013-04-05 09:00:00,
2013-04-05 04:10:00,21.6,18.1,30.30,NW,305,2.0,2.0,86,0.00,-SN,,0.00,WeatherDisplay:10.37,2013-04-05 09:10:00,
2013-04-05 04:15:00,21.6,18.3,30.30,NW,306,1.0,2.0,87,0.00,-SN,,0.00,WeatherDisplay:10.37,2013-04-05 09:15:00,
2013-04-05 04:20:00,21.5,18.3,30.30,NW,306,0.0,2.0,87,0.00,-SN,,0.00,WeatherDisplay:10.37,2013-04-05 09:20:00,
2013-04-05 04:30:00,21.2,18.0,30.30,NW,304,0.0,0.0,87,0.00,-SN,,0.00,WeatherDisplay:10.37,2013-04-05 09:30:00,
2013-04-05 04:40:00,21.1,17.6,30.31,NW,304,0.0,0.0,86,0.00,-SN,,0.00,WeatherDisplay:10.37,2013-04-05 09:40:00,
2013-04-05 04:45:00,21.1,17.6,30.31,NW,304,0.0,0.0,86,0.00,-SN,,0.00,WeatherDisplay:10.37,2013-04-05 09:45:00,
2013-04-05 05:00:00,20.6,17.1,30.31,NW,304,0.0,0.0,86,0.00,-SN,,0.00,WeatherDisplay:10.37,2013-04-05 10:00:00,
2013-04-05 05:10:00,20.1,16.6,30.31,NW,304,0.0,0.0,86,0.00,-SN,,0.00,WeatherDisplay:10.37,2013-04-05 10:10:00,
2013-04-05 05:20:00,19.4,16.4,30.31,NW,304,0.0,0.0,88,0.00,-SN,,0.00,WeatherDisplay:10.37,2013-04-05 10:20:00,
2013-04-05 05:25:00,19.2,16.2,30.31,NW,304,0.0,0.0,88,0.00,-SN,,0.00,WeatherDisplay:10.37,2013-04-05 10:25:00,
2013-04-05 05:30:00,18.9,15.9,30.32,NW,304,0.0,0.0,88,0.00,-SN,,0.00,WeatherDisplay:10.37,2013-04-05 10:30:00,
2013-04-05 05:50:00,19.3,16.8,30.31,NW,306,0.0,0.0,90,0.00,-SN,,0.00,WeatherDisplay:10.37,2013-04-05 10:50:00,
2013-04-05 06:00:00,19.6,16.6,30.31,NW,306,0.0,0.0,88,0.00,-SN,,0.00,WeatherDisplay:10.37,2013-04-05 11:00:00,
2013-04-05 06:10:00,19.4,16.4,30.31,NW,306,0.0,0.0,88,0.00,-SN,,0.00,WeatherDisplay:10.37,2013-04-05 11:10:00,
2013-04-05 06:15:00,19.3,16.3,30.31,NW,306,0.0,0.0,88,0.00,-SN,,0.00,WeatherDisplay:10.37,2013-04-05 11:15:00,
2013-04-05 06:20:00,19.2,16.2,30.31,NW,306,0.0,0.0,88,0.00,-SN,,0.00,WeatherDisplay:10.37,2013-04-05 11:20:00,
2013-04-05 06:25:00,19.1,16.1,30.31,NW,306,0.0,0.0,88,0.00,-SN,,0.00,WeatherDisplay:10.37,2013-04-05 11:25:00,
2013-04-05 06:30:00,19.0,15.8,30.32,NW,306,0.0,0.0,87,0.00,-SN,,0.00,WeatherDisplay:10.37,2013-04-05 11:30:00,
2013-04-05 06:40:00,18.5,15.3,30.32,NW,305,0.0,0.0,87,0.00,-SN,,0.00,WeatherDisplay:10.37,2013-04-05 11:40:00,
2013-04-05 06:45:00,18.3,15.3,30.32,NW,306,0.0,0.0,88,0.00,-SN,,0.00,WeatherDisplay:10.37,2013-04-05 11:45:00,
2013-04-05 06:50:00,18.4,15.4,30.32,NW,306,0.0,0.0,88,0.00,-SN,,0.00,WeatherDisplay:10.37,2013-04-05 11:50:00,
2013-04-05 07:00:00,18.6,15.7,30.31,NW,306,0.0,0.0,88,0.00,-SN,,0.00,WeatherDisplay:10.37,2013-04-05 12:00:00,
2013-04-05 07:05:00,18.8,15.6,30.31,NW,306,0.0,0.0,87,0.00,-SN,,0.00,WeatherDisplay:10.37,2013-04-05 12:05:00,
2013-04-05 07:10:00,18.7,15.5,30.32,NW,306,0.0,0.0,87,0.00,-SN,,0.00,WeatherDisplay:10.37,2013-04-05 12:10:00,
2013-04-05 07:15:00,18.6,15.4,30.32,NW,306,0.0,0.0,87,0.00,-SN,,0.00,WeatherDisplay:10.37,2013-04-05 12:15:00,
2013-04-05 07:20:00,18.4,15.2,30.32,NW,306,0.0,0.0,87,0.00,-SN,,0.00,WeatherDisplay:10.37,2013-04-05 12:20:00,
2013-04-05 07:30:00,18.4,15.1,30.32,NW,306,0.0,0.0,87,0.00,-SN,,0.00,WeatherDisplay:10.37,2013-04-05 12:30:00,
2013-04-05 07:40:00,18.3,15.3,30.32,NW,306,0.0,0.0,88,0.00,-SN,,0.00,WeatherDisplay:10.37,2013-04-05 12:40:00,
2013-04-05 07:45:00,18.3,15.6,30.32,NW,306,0.0,0.0,89,0.00,-SN,,0.00,WeatherDisplay:10.37,2013-04-05 12:45:00,
2013-04-05 08:00:00,19.3,16.3,30.32,NW,306,0.0,0.0,88,0.00,-SN,,0.00,WeatherDisplay:10.37,2013-04-05 13:00:00,
2013-04-05 08:10:00,20.0,17.0,30.32,NW,306,0.0,0.0,88,0.00,-SN,,0.00,WeatherDisplay:10.37,2013-04-05 13:10:00,
2013-04-05 08:15:00,20.6,17.7,30.32,NW,306,0.0,2.0,88,0.00,-SN,,0.00,WeatherDisplay:10.37,2013-04-05 13:15:00,
2013-04-05 08:25:00,22.3,17.9,30.31,North,360,1.0,6.0,83,0.00,-SN,,0.00,WeatherDisplay:10.37,2013-04-05 13:25:00,
2013-04-05 08:30:00,23.5,17.6,30.31,NNE,25,5.0,12.0,78,0.00,-SN,,0.00,WeatherDisplay:10.37,2013-04-05 13:30:00,
2013-04-05 08:40:00,25.4,17.6,30.31,NNE,15,3.0,6.0,72,0.00,-SN,,0.00,WeatherDisplay:10.37,2013-04-05 13:40:00,
2013-04-05 08:45:00,25.6,17.5,30.31,NNE,30,1.0,4.0,71,0.00,-SN,,0.00,WeatherDisplay:10.37,2013-04-05 13:45:00,
2013-04-05 08:50:00,26.3,17.5,30.31,NNE,27,1.0,4.0,69,0.00,-SN,,0.00,WeatherDisplay:10.37,2013-04-05 13:50:00,
2013-04-05 08:55:00,26.9,17.4,30.31,NNE,22,1.0,4.0,67,0.00,-SN,,0.00,WeatherDisplay:10.37,2013-04-05 13:55:00,
2013-04-05 09:00:00,27.3,17.4,30.31,NE,36,2.0,8.0,66,0.00,-SN,,0.00,WeatherDisplay:10.37,2013-04-05 14:00:00,
2013-04-05 09:10:00,28.4,17.8,30.30,NNE,26,1.0,6.0,64,0.00,-SN,,0.00,WeatherDisplay:10.37,2013-04-05 14:10:00,
2013-04-05 09:15:00,29.1,17.7,30.30,North,358,1.0,3.0,62,0.00,-SN,,0.00,WeatherDisplay:10.37,2013-04-05 14:15:00,
2013-04-05 09:20:00,30.0,18.1,30.30,North,358,2.0,5.0,61,0.00,-SN,,0.00,WeatherDisplay:10.37,2013-04-05 14:20:00,
2013-04-05 09:30:00,30.3,17.6,30.29,NNE,30,2.0,7.0,59,0.00,-SN,,0.00,WeatherDisplay:10.37,2013-04-05 14:30:00,
2013-04-05 09:40:00,30.8,17.3,30.29,NE,52,3.0,5.0,57,0.00,-SN,,0.00,WeatherDisplay:10.37,2013-04-05 14:40:00,
2013-04-05 09:45:00,31.2,17.3,30.28,NE,34,2.0,5.0,56,0.00,-SN,,0.00,WeatherDisplay:10.37,2013-04-05 14:45:00,
2013-04-05 10:00:00,32.6,17.8,30.28,NNE,33,1.0,8.0,54,0.00,-SN,,0.00,WeatherDisplay:10.37,2013-04-05 15:00:00,
2013-04-05 10:05:00,33.1,17.8,30.28,NNE,17,3.0,6.0,53,0.00,-SN,,0.00,WeatherDisplay:10.37,2013-04-05 15:05:00,
2013-04-05 10:15:00,34.0,18.2,30.28,NE,54,2.0,5.0,52,0.00,-SN,,0.00,WeatherDisplay:10.37,2013-04-05 15:15:00,
2013-04-05 10:25:00,34.3,17.5,30.28,NNE,20,1.0,5.0,50,0.00,-SN,,0.00,WeatherDisplay:10.37,2013-04-05 15:25:00,
2013-04-05 10:35:00,35.0,17.3,30.28,East,86,3.0,6.0,48,0.00,-SN,,0.00,WeatherDisplay:10.37,2013-04-05 15:35:00,
2013-04-05 10:40:00,35.2,17.9,30.28,NE,38,2.0,4.0,49,0.00,-SN,,0.00,WeatherDisplay:10.37,2013-04-05 15:40:00,
2013-04-05 10:45:00,35.7,17.9,30.28,WSW,255,2.0,8.0,48,0.00,-SN,,0.00,WeatherDisplay:10.37,2013-04-05 15:45:00,
2013-04-05 10:50:00,36.0,17.7,30.28,West,264,1.0,6.0,47,0.00,-SN,,0.00,WeatherDisplay:10.37,2013-04-05 15:50:00,
2013-04-05 11:00:00,36.1,17.3,30.27,ESE,114,3.0,7.0,46,0.00,-SN,,0.00,WeatherDisplay:10.37,2013-04-05 16:00:00,
2013-04-05 11:10:00,37.1,18.2,30.26,NW,308,1.0,5.0,46,0.00,-SN,,0.00,WeatherDisplay:10.37,2013-04-05 16:10:00,
2013-04-05 11:15:00,36.9,16.5,30.27,WSW,244,1.0,10.0,43,0.00,-SN,,0.00,WeatherDisplay:10.37,2013-04-05 16:15:00,
2013-04-05 11:25:00,37.6,18.2,30.26,WNW,284,1.0,5.0,45,0.00,-SN,,0.00,WeatherDisplay:10.37,2013-04-05 16:25:00,
2013-04-05 11:30:00,37.7,16.7,30.26,North,353,2.0,7.0,42,0.00,-SN,,0.00,WeatherDisplay:10.37,2013-04-05 16:30:00,
2013-04-05 11:35:00,37.7,17.8,30.25,North,356,2.0,6.0,44,0.00,-SN,,0.00,WeatherDisplay:10.37,2013-04-05 16:35:00,
2013-04-05 11:40:00,37.6,16.5,30.25,NNW,339,2.0,6.0,42,0.00,-SN,,0.00,WeatherDisplay:10.37,2013-04-05 16:40:00,
2013-04-05 11:45:00,37.2,16.2,30.25,NW,304,2.0,6.0,42,0.00,-SN,,0.00,WeatherDisplay:10.37,2013-04-05 16:45:00,
2013-04-05 11:50:00,37.2,17.8,30.25,SW,235,2.0,5.0,45,0.00,-SN,,0.00,WeatherDisplay:10.37,2013-04-05 16:50:00,
2013-04-05 12:00:00,36.7,16.8,30.25,NNW,328,2.0,6.0,44,0.00,-SN,,0.00,WeatherDisplay:10.37,2013-04-05 17:00:00,
2013-04-05 12:10:00,37.3,17.9,30.25,West,267,3.0,7.0,45,0.00,-SN,,0.00,WeatherDisplay:10.37,2013-04-05 17:10:00,
2013-04-05 12:15:00,37.2,17.3,30.25,WNW,282,0.0,6.0,44,0.00,-SN,,0.00,WeatherDisplay:10.37,2013-04-05 17:15:00,
2013-04-05 12:25:00,37.4,18.0,30.25,SE,138,1.0,7.0,45,0.00,-SN,,0.00,WeatherDisplay:10.37,2013-04-05 17:25:00,
2013-04-05 12:30:00,37.7,18.2,30.25,SW,235,2.0,3.0,45,0.00,-SN,,0.00,WeatherDisplay:10.37,2013-04-05 17:30:00,
2013-04-05 12:35:00,37.4,18.0,30.25,WNW,301,3.0,12.0,45,0.00,-SN,,0.00,WeatherDisplay:10.37,2013-04-05 17:35:00,
2013-04-05 12:45:00,37.0,17.1,30.24,NE,41,3.0,7.0,44,0.00,-SN,,0.00,WeatherDisplay:10.37,2013-04-05 17:45:00,
2013-04-05 12:55:00,36.9,17.5,30.24,NNE,14,3.0,6.0,45,0.00,-SN,,0.00,WeatherDisplay:10.37,2013-04-05 17:55:00,
2013-04-05 13:00:00,37.1,17.7,30.24,East,88,1.0,5.0,45,0.00,-SN,,0.00,WeatherDisplay:10.37,2013-04-05 18:00:00,
2013-04-05 13:05:00,37.3,18.4,30.23,SE,132,1.0,8.0,46,0.00,-SN,,0.00,WeatherDisplay:10.37,2013-04-05 18:05:00,
2013-04-05 13:15:00,37.8,18.8,30.23,NNE,18,1.0,6.0,46,0.00,-SN,,0.00,WeatherDisplay:10.37,2013-04-05 18:15:00,
2013-04-05 13:20:00,37.9,18.4,30.22,NNE,19,1.0,4.0,45,0.00,-SN,,0.00,WeatherDisplay:10.37,2013-04-05 18:20:00,
2013-04-05 13:30:00,39.2,19.1,30.22,NNW,341,1.0,5.0,44,0.00,-SN,,0.00,WeatherDisplay:10.37,2013-04-05 18:30:00,
2013-04-05 13:40:00,38.7,18.6,30.22,NE,39,1.0,6.0,44,0.00,-SN,,0.00,WeatherDisplay:10.37,2013-04-05 18:40:00,
2013-04-05 13:45:00,38.4,18.9,30.22,NE,42,1.0,3.0,45,0.00,-SN,,0.00,WeatherDisplay:10.37,2013-04-05 18:45:00,
2013-04-05 13:50:00,38.6,19.1,30.22,NW,310,1.0,3.0,45,0.00,-SN,,0.00,WeatherDisplay:10.37,2013-04-05 18:50:00,
2013-04-05 14:00:00,38.5,20.0,30.21,NNW,341,1.0,6.0,47,0.00,-SN,,0.00,WeatherDisplay:10.37,2013-04-05 19:00:00,
2013-04-05 14:10:00,38.4,19.4,30.20,SE,129,1.0,6.0,46,0.00,-SN,,0.00,WeatherDisplay:10.37,2013-04-05 19:10:00,
2013-04-05 14:20:00,38.5,19.0,30.20,NNW,336,3.0,7.0,45,0.00,-SN,,0.00,WeatherDisplay:10.37,2013-04-05 19:20:00,
2013-04-05 14:30:00,38.4,20.4,30.19,NNW,333,1.0,6.0,48,0.00,-SN,,0.00,WeatherDisplay:10.37,2013-04-05 19:30:00,
2013-04-05 14:35:00,38.5,19.5,30.19,ESE,110,2.0,6.0,46,0.00,-SN,,0.00,WeatherDisplay:10.37,2013-04-05 19:35:00,
2013-04-05 14:45:00,38.9,19.9,30.18,North,349,2.0,4.0,46,0.00,-SN,,0.00,WeatherDisplay:10.37,2013-04-05 19:45:00,
2013-04-05 14:50:00,39.3,19.7,30.18,NNE,33,3.0,5.0,45,0.00,-SN,,0.00,WeatherDisplay:10.37,2013-04-05 19:50:00,
2013-04-05 14:55:00,39.3,19.7,30.18,ENE,62,2.0,8.0,45,0.00,-SN,,0.00,WeatherDisplay:10.37,2013-04-05 19:55:00,
2013-04-05 15:05:00,38.8,19.8,30.17,NE,43,5.0,10.0,46,0.00,-SN,,0.00,WeatherDisplay:10.37,2013-04-05 20:05:00,
2013-04-05 15:10:00,39.0,20.5,30.17,East,90,1.0,5.0,47,0.00,-SN,,0.00,WeatherDisplay:10.37,2013-04-05 20:10:00,
2013-04-05 15:15:00,39.2,20.7,30.16,NNE,13,2.0,6.0,47,0.00,-SN,,0.00,WeatherDisplay:10.37,2013-04-05 20:15:00,
2013-04-05 15:20:00,39.2,20.1,30.16,NE,41,1.0,5.0,46,0.00,-SN,,0.00,WeatherDisplay:10.37,2013-04-05 20:20:00,
2013-04-05 15:25:00,39.2,19.6,30.16,NNE,33,1.0,7.0,45,0.00,-SN,,0.00,WeatherDisplay:10.37,2013-04-05 20:25:00,
2013-04-05 15:30:00,39.2,20.1,30.16,North,357,2.0,6.0,46,0.00,-SN,,0.00,WeatherDisplay:10.37,2013-04-05 20:30:00,
2013-04-05 15:40:00,39.4,20.3,30.15,North,355,3.0,8.0,46,0.00,-SN,,0.00,WeatherDisplay:10.37,2013-04-05 20:40:00,
2013-04-05 15:45:00,39.0,19.9,30.15,North,355,2.0,5.0,46,0.00,-SN,,0.00,WeatherDisplay:10.37,2013-04-05 20:45:00,
2013-04-05 15:50:00,38.9,19.8,30.15,ENE,57,2.0,6.0,46,0.00,-SN,,0.00,WeatherDisplay:10.37,2013-04-05 20:50:00,
2013-04-05 16:00:00,38.6,20.0,30.14,NE,41,2.0,5.0,47,0.00,-SN,,0.00,WeatherDisplay:10.37,2013-04-05 21:00:00,
2013-04-05 16:05:00,38.5,20.5,30.14,NNE,26,2.0,4.0,48,0.00,-SN,,0.00,WeatherDisplay:10.37,2013-04-05 21:05:00,
2013-04-05 16:15:00,38.3,19.8,30.13,NE,38,3.0,8.0,47,0.00,-SN,,0.00,WeatherDisplay:10.37,2013-04-05 21:15:00,
2013-04-05 16:20:00,38.2,20.2,30.13,ENE,70,2.0,6.0,48,0.00,-SN,,0.00,WeatherDisplay:10.37,2013-04-05 21:20:00,
2013-04-05 16:25:00,38.5,20.5,30.13,NE,43,1.0,5.0,48,0.00,-SN,,0.00,WeatherDisplay:10.37,2013-04-05 21:25:00,
2013-04-05 16:35:00,38.7,20.6,30.12,NE,44,1.0,7.0,48,0.00,-SN,,0.00,WeatherDisplay:10.37,2013-04-05 21:35:00,
2013-04-05 16:40:00,38.4,21.3,30.12,ENE,69,1.0,7.0,50,0.00,-SN,,0.00,WeatherDisplay:10.37,2013-04-05 21:40:00,
2013-04-05 16:45:00,38.4,21.4,30.12,WNW,295,0.0,4.0,50,0.00,-SN,,0.00,WeatherDisplay:10.37,2013-04-05 21:45:00,
2013-04-05 16:55:00,38.2,21.7,30.12,North,349,2.0,8.0,51,0.00,-SN,,0.00,WeatherDisplay:10.37,2013-04-05 21:55:00,
2013-04-05 17:05:00,37.2,22.9,30.11,WNW,283,2.0,7.0,56,0.00,-SN,,0.00,WeatherDisplay:10.37,2013-04-05 22:05:00,
2013-04-05 17:10:00,36.8,23.0,30.11,WNW,286,2.0,7.0,57,0.00,-SN,,0.00,WeatherDisplay:10.37,2013-04-05 22:10:00,
2013-04-05 17:15:00,36.6,23.2,30.10,North,360,2.0,4.0,58,0.00,-SN,,0.00,WeatherDisplay:10.37,2013-04-05 22:15:00,
2013-04-05 17:20:00,36.5,23.5,30.10,NNW,343,1.0,6.0,59,0.00,-SN,,0.00,WeatherDisplay:10.37,2013-04-05 22:20:00,
2013-04-05 17:25:00,36.4,23.8,30.10,NW,325,0.0,5.0,60,0.00,-SN,,0.00,WeatherDisplay:10.37,2013-04-05 22:25:00,
2013-04-05 17:30:00,36.2,24.0,30.10,WNW,303,3.0,8.0,61,0.00,-SN,,0.00,WeatherDisplay:10.37,2013-04-05 22:30:00,
2013-04-05 17:40:00,35.7,24.3,30.09,SSE,149,2.0,8.0,63,0.00,-SN,,0.00,WeatherDisplay:10.37,2013-04-05 22:40:00,
2013-04-05 17:45:00,35.5,24.9,30.09,WNW,288,1.0,4.0,65,0.00,-SN,,0.00,WeatherDisplay:10.37,2013-04-05 22:45:00,
2013-04-05 17:55:00,35.0,25.8,30.09,WSW,237,1.0,4.0,69,0.00,-SN,,0.00,WeatherDisplay:10.37,2013-04-05 22:55:00,
2013-04-05 18:00:00,34.7,25.9,30.10,WSW,239,2.0,6.0,70,0.00,-SN,,0.00,WeatherDisplay:10.37,2013-04-05 23:00:00,
2013-04-05 18:05:00,34.5,25.7,30.10,SW,217,1.0,6.0,70,0.00,-SN,,0.00,WeatherDisplay:10.37,2013-04-05 23:05:00,
2013-04-05 18:15:00,34.2,26.1,30.09,WSW,257,1.0,4.0,72,0.00,-SN,,0.00,WeatherDisplay:10.37,2013-04-05 23:15:00,
2013-04-05 18:20:00,34.2,26.1,30.08,SSE,152,0.0,3.0,72,0.00,-SN,,0.00,WeatherDisplay:10.37,2013-04-05 23:20:00,
2013-04-05 18:30:00,34.1,25.7,30.08,North,356,2.0,6.0,71,0.00,-SN,,0.00,WeatherDisplay:10.37,2013-04-05 23:30:00,
2013-04-05 18:40:00,34.1,25.0,30.08,NW,326,1.0,5.0,69,0.00,-SN,,0.00,WeatherDisplay:10.37,2013-04-05 23:40:00,
2013-04-05 18:45:00,34.1,25.3,30.08,NNW,329,1.0,4.0,70,0.00,-SN,,0.00,WeatherDisplay:10.37,2013-04-05 23:45:00,
2013-04-05 18:55:00,34.0,25.2,30.08,WSW,253,2.0,9.0,70,0.00,-SN,,0.00,WeatherDisplay:10.37,2013-04-05 23:55:00,
2013-04-05 19:00:00,33.9,25.5,30.08,WSW,243,2.0,5.0,71,0.00,-SN,,0.00,WeatherDisplay:10.37,2013-04-06 00:00:00,
2013-04-05 19:05:00,33.9,25.5,30.08,WNW,283,1.0,7.0,71,0.00,-SN,,0.00,WeatherDisplay:10.37,2013-04-06 00:05:00,
2013-04-05 19:10:00,33.8,25.4,30.08,WNW,297,0.0,5.0,71,0.00,-SN,,0.00,WeatherDisplay:10.37,2013-04-06 00:10:00,
2013-04-05 19:15:00,33.7,25.3,30.09,West,274,2.0,6.0,71,0.00,-SN,,0.00,WeatherDisplay:10.37,2013-04-06 00:15:00,
2013-04-05 19:20:00,33.6,25.5,30.09,WNW,284,2.0,4.0,72,0.00,-SN,,0.00,WeatherDisplay:10.37,2013-04-06 00:20:00,
2013-04-05 19:30:00,33.5,25.8,30.09,NW,307,2.0,4.0,73,0.00,-SN,,0.00,WeatherDisplay:10.37,2013-04-06 00:30:00,
2013-04-05 19:40:00,33.3,26.2,30.08,WNW,291,0.0,3.0,75,0.00,-SN,,0.00,WeatherDisplay:10.37,2013-04-06 00:40:00,
2013-04-05 19:55:00,33.1,26.4,30.08,SW,228,3.0,9.0,76,0.00,-SN,,0.00,WeatherDisplay:10.37,2013-04-06 00:55:00,
2013-04-05 20:05:00,32.9,26.5,30.07,ENE,69,3.0,8.0,77,0.00,-SN,,0.00,WeatherDisplay:10.37,2013-04-06 01:05:00,
2013-04-05 20:10:00,32.8,26.7,30.07,ESE,114,1.0,3.0,78,0.00,-SN,,0.00,WeatherDisplay:10.37,2013-04-06 01:10:00,
2013-04-05 20:20:00,32.7,26.6,30.07,NNE,13,0.0,10.0,78,0.00,-SN,,0.00,WeatherDisplay:10.37,2013-04-06 01:20:00,
2013-04-05 20:30:00,32.6,26.8,30.06,North,349,2.0,8.0,79,0.00,-SN,,0.00,WeatherDisplay:10.37,2013-04-06 01:30:00,
2013-04-05 20:40:00,32.8,26.7,30.06,ENE,64,1.0,8.0,78,0.00,-SN,,0.00,WeatherDisplay:10.37,2013-04-06 01:40:00,
2013-04-05 20:50:00,32.8,26.7,30.06,East,84,1.0,8.0,78,0.00,-SN,,0.00,WeatherDisplay:10.37,2013-04-06 01:50:00,
2013-04-05 21:00:00,32.8,26.7,30.06,ENE,72,2.0,10.0,78,0.00,-SN,,0.00,WeatherDisplay:10.37,2013-04-06 02:00:00,
2013-04-05 21:10:00,32.7,26.9,30.06,NE,39,2.0,10.0,79,0.00,-SN,,0.00,WeatherDisplay:10.37,2013-04-06 02:10:00,
2013-04-05 21:20:00,32.6,27.1,30.05,NNE,20,1.0,5.0,80,0.00,-SN,,0.00,WeatherDisplay:10.37,2013-04-06 02:20:00,
2013-04-05 21:25:00,32.5,27.0,30.06,East,100,0.0,6.0,80,0.00,-SN,,0.00,WeatherDisplay:10.37,2013-04-06 02:25:00,
2013-04-05 21:35:00,32.4,27.2,30.06,NNE,32,1.0,4.0,81,0.00,-SN,,0.00,WeatherDisplay:10.37,2013-04-06 02:35:00,
2013-04-05 21:40:00,32.3,27.1,30.05,NNE,30,2.0,8.0,81,0.00,-SN,,0.00,WeatherDisplay:10.37,2013-04-06 02:40:00,
2013-04-05 21:45:00,32.2,27.1,30.05,NE,55,5.0,7.0,81,0.00,-SN,,0.00,WeatherDisplay:10.37,2013-04-06 02:45:00,
2013-04-05 22:00:00,32.1,26.9,30.04,ENE,59,2.0,7.0,81,0.00,-SN,,0.00,WeatherDisplay:10.37,2013-04-06 03:00:00,
2013-04-05 22:10:00,32.2,27.0,30.04,East,80,3.0,6.0,81,0.00,-SN,,0.00,WeatherDisplay:10.37,2013-04-06 03:10:00,
2013-04-05 22:20:00,32.2,27.0,30.03,NW,323,1.0,4.0,81,0.00,-SN,,0.00,WeatherDisplay:10.37,2013-04-06 03:20:00,
2013-04-05 22:30:00,32.3,27.1,30.03,ENE,60,1.0,5.0,81,0.00,-SN,,0.00,WeatherDisplay:10.37,2013-04-06 03:30:00,
2013-04-05 22:35:00,32.3,27.1,30.02,ENE,57,1.0,7.0,81,0.00,-SN,,0.00,WeatherDisplay:10.37,2013-04-06 03:35:00,
2013-04-05 22:45:00,32.3,27.1,30.01,NE,43,3.0,9.0,81,0.00,-SN,,0.00,WeatherDisplay:10.37,2013-04-06 03:45:00,
2013-04-05 22:50:00,32.3,27.1,30.01,East,99,3.0,12.0,81,0.00,-SN,,0.00,WeatherDisplay:10.37,2013-04-06 03:50:00,
2013-04-05 23:05:00,32.3,27.4,30.00,NE,53,1.0,4.0,82,0.00,-SN,,0.00,WeatherDisplay:10.37,2013-04-06 04:05:00,
2013-04-05 23:10:00,32.2,27.3,30.00,North,359,3.0,9.0,82,0.00,-SN,,0.00,WeatherDisplay:10.37,2013-04-06 04:10:00,
2013-04-05 23:15:00,32.2,27.3,29.99,NNW,340,0.0,5.0,82,0.00,-SN,,0.00,WeatherDisplay:10.37,2013-04-06 04:15:00,
2013-04-05 23:25:00,32.1,27.5,29.99,NE,34,2.0,5.0,83,0.00,-SN,,0.00,WeatherDisplay:10.37,2013-04-06 04:25:00,
2013-04-05 23:30:00,32.1,27.5,29.99,NNE,27,2.0,4.0,83,0.00,-SN,,0.00,WeatherDisplay:10.37,2013-04-06 04:30:00,
2013-04-05 23:40:00,32.1,27.5,29.98,ESE,120,2.0,10.0,83,0.00,-SN,,0.00,WeatherDisplay:10.37,2013-04-06 04:40:00,
2013-04-05 23:45:00,32.1,27.5,29.97,NE,40,3.0,10.0,83,0.00,-SN,,0.00,WeatherDisplay:10.37,2013-04-06 04:45:00,
2013-04-05 23:50:00,32.1,27.5,29.97,ENE,71,3.0,12.0,83,0.00,-SN,,0.00,WeatherDisplay:10.37,2013-04-06 04:50:00,
2013-04-05 23:55:00,32.1,27.5,29.96,East,84,3.0,7.0,83,0.00,-SN,,0.00,WeatherDisplay:10.37,2013-04-06 04:55:00,